Lid_Strength_Index
4 4 4 5 5 5 5 5 5 4 4 3 3 2 2 2 2 3 5 3 2 -2 2 3 4 3 3 3 2 2 6 7 7 7 6 4 5 4 3 5 4 3 4 3 1
4 4 5 5 5 5 5 5 5 4 4 3 3 2 2 2 3 4 -0 -0 -0 -1 5 4 5 4 5 4 3 4 6 6 5 4 6 5 5 5 5 6 5 4 3 2 1
4 4 5 5 5 5 5 5 5 4 4 4 3 3 2 2 4 4 -2 -1 -0 1 4 3 4 4 6 4 4 4 6 5 5 4 4 5 6 4 6 7 6 6 4 3 2
4 4 5 5 5 5 5 5 4 4 3 4 3 3 2 2 8 1 -2 -1 -1 2 4 4 4 5 6 6 4 5 4 4 4 4 4 6 5 6 5 6 3 3 3 3 3
4 4 5 5 5 5 5 4 4 3 3 4 4 3 3 5 5 0 -1 -2 3 3 4 5 5 5 6 5 5 5 4 4 4 4 4 4 6 6 5 4 3 3 3 3 3
4 4 5 4 4 5 4 4 3 3 3 4 4 4 4 7 4 1 0 2 2 3 4 4 5 4 5 5 6 4 4 4 4 4 4 5 6 5 5 3 4 5 6 6 6
4 4 4 4 5 5 4 3 3 3 3 3 3 3 4 5 2 1 2 2 3 3 4 3 3 5 4 6 4 5 6 5 4 4 5 4 7 7 4 4 5 6 6 6 7
4 5 5 4 5 4 3 3 3 3 3 2 2 2 5 3 2 2 2 3 2 2 2 3 3 4 4 4 5 6 5 8 5 5 4 6 10 7 5 5 6 7 7 7 7
4 4 4 4 5 4 3 3 3 3 2 2 1 2 5 4 4 2 2 3 3 3 2 3 3 4 4 6 7 6 8 7 7 4 5 6 9 7 6 7 7 7 7 7 7
4 4 5 5 5 4 3 3 2 3 2 2 2 4 3 5 4 2 1 1 3 3 4 4 5 5 5 6 9 8 8 7 8 6 5 6 8 7 6 7 8 7 7 8 8
4 5 5 4 4 4 3 2 3 3 2 4 4 5 4 2 2 3 2 2 2 3 5 4 6 8 6 5 6 6 7 7 7 5 6 7 8 7 7 7 8 8 8 8 8
4 4 4 4 4 3 2 2 2 2 4 2 2 3 3 2 5 4 1 4 4 6 5 5 7 5 5 5 6 6 7 8 7 6 6 7 8 7 7 8 8 8 8 9 8
4 4 4 4 3 3 1 1 -0 0 4 4 2 3 3 2 4 4 3 3 5 6 6 7 6 5 5 6 7 7 7 8 8 7 6 7 9 8 7 7 8 8 8 8 9
4 3 4 3 4 0 1 -0 -0 0 7 6 5 3 2 2 4 2 2 3 4 6 5 6 5 6 6 7 6 8 6 6 7 9 10 7 11 9 7 7 7 8 8 8 8
4 4 4 4 1 1 1 -1 -0 1 13 5 4 1 2 4 4 4 2 3 5 6 5 7 6 6 7 6 6 7 5 6 7 8 8 9 10 9 8 9 8 7 8 8 8
4 4 4 3 1 -0 -1 -1 1 8 12 7 5 5 5 4 4 3 3 3 3 5 5 6 4 5 5 5 5 5 6 6 7 8 11 9 10 11 9 8 8 8 8 8 8
3 4 4 1 1 -1 -1 2 8 10 6 8 7 5 6 6 5 5 5 6 7 8 8 6 6 5 4 6 5 6 7 11 12 12 12 8 9 9 7 6 7 8 8 8 8
4 3 3 1 -1 -0 1 5 11 8 8 5 6 6 7 6 6 6 6 7 5 6 8 9 10 6 5 6 7 7 7 11 14 13 11 8 11 10 8 8 8 8 8 8 8
4 0 1 1 0 0 3 9 9 7 6 7 6 8 7 6 6 6 6 7 6 5 8 9 9 6 6 5 5 7 9 6 9 9 11 11 11 9 9 9 9 9 8 9 9
1 1 1 -1 -1 1 5 9 7 5 5 6 9 8 9 7 7 7 7 6 6 5 5 7 10 7 6 5 5 6 6 10 9 14 14 12 12 12 11 10 10 10 9 9 9
1 3 1 0 -0 3 8 6 6 4 4 6 7 8 7 8 8 7 7 7 7 6 5 6 8 8 7 7 8 7 8 8 8 9 14 15 14 8 9 9 10 10 10 10 9
2 5 0 -1 5 4 6 5 8 5 4 5 5 6 7 7 8 8 8 8 8 7 7 6 7 10 9 7 6 6 7 7 11 12 10 10 13 7 8 8 9 10 10 10 9
3 3 -0 1 7 6 5 6 5 6 6 6 6 6 5 7 9 7 7 8 7 7 7 6 8 12 10 8 6 8 7 7 7 8 12 13 15 10 9 10 9 10 10 9 9
3 6 3 2 2 6 6 7 7 5 5 5 6 5 6 7 6 8 7 7 7 6 7 6 8 10 12 12 10 11 8 7 8 11 10 11 12 10 10 10 10 9 9 8 8
2 5 4 6 5 5 5 6 7 8 5 5 6 6 7 9 8 8 7 6 5 7 7 7 11 9 9 8 9 8 9 8 9 8 11 10 10 10 10 10 9 8 8 8 8
4 4 3 5 5 5 6 7 7 7 6 7 7 6 6 8 8 9 7 7 7 6 6 6 10 9 10 8 8 10 9 9 9 9 9 9 10 8 8 9 9 8 8 8 8
1 0 3 5 5 6 7 6 6 5 5 5 5 6 6 6 5 4 4 5 5 6 7 8 9 10 12 9 10 11 10 9 9 9 9 10 10 9 10 9 8 8 8 8 8